Regional Weather Roundup
Issued by NWS

Home | Current Version | Previous Version | Graphics & Text | Print | Product List | Glossary Off
Versions: 1 2 3 4 5 6 7 8 9 10 11 12 13 14 15 16 17 18 19 20 21 22 23 24 25 26 27 28 29 30 31 32 33 34 35 36 37 38 39 40 41 42 43 44 45 46 47 48 49 50

000
ASUS43 KTOP 170208
RWRKS

WEATHER ROUNDUP FOR KANSAS
NATIONAL WEATHER SERVICE GOODLAND KS
900 PM CDT WED APR 16 2014

NOTE:  "FAIR" INDICATES FEW OR NO CLOUDS BELOW 12,000 FEET WITH NO
SIGNIFICANT WEATHER AND/OR OBSTRUCTIONS TO VISIBILITY.

KSZ001>006-013>018-027>032-041>047-170300-
NORTHWEST KANSAS

CITY           SKY/WX    TMP DP  RH WIND       PRES   REMARKS
GOODLAND       CLOUDY    45  34  65 NE8       30.06R
HAYS           CLOUDY    52  32  46 NE10      30.04R
HILL CITY      CLOUDY    51  33  50 NE9       30.05R
RUSSELL        CLOUDY    52  34  50 N12       30.01R
$$

KSZ061>065-074>080-084>089-170300-
SOUTHWEST KANSAS

CITY           SKY/WX    TMP DP  RH WIND       PRES   REMARKS
DODGE CITY     CLOUDY    55  31  39 N24G31    29.98R
ELKHART          N/A     55  26  32 NE17        N/A
GARDEN CITY    CLOUDY    54  31  41 NE20      30.00R
GREAT BEND     MOCLDY    54  34  47 N17       30.00R
LIBERAL        PTCLDY    57  28  33 N12       29.97R
PRATT          PTCLDY    55  34  44 N18G26    29.97R
$$

KSZ066>073-081>083-090>101-170300-
SOUTHEAST KANSAS

CITY           SKY/WX    TMP DP  RH WIND       PRES   REMARKS
CHANUTE        CLEAR     53  34  48 S9        29.96R
COFFEYVILLE    CLEAR     57  33  40 S12       29.98R
HUTCHINSON     MOCLDY    59  36  42 N16G29    29.95R
MEDICINE LODGE   N/A     57  34  41 CALM      29.92R
NEWTON         MOCLDY    59  34  38 N20G26    29.97R
PARSONS        CLEAR     57  32  38 S8        29.98R
WICHITA INTL   PTCLDY    62  30  29 S7        29.92R
WICHITA JABRA  PTCLDY    62  32  32 SW6       29.93R
WICHITA MCCONL PTCLDY    59  31  34 SW9       29.94R
WINFIELD       CLEAR     56  33  42 S10       29.94R
$$

KSZ007>012-019>026-033>040-048>060-102>105-170300-
NORTHEAST KANSAS

CITY           SKY/WX    TMP DP  RH WIND       PRES   REMARKS
CONCORDIA      CLOUDY    45  33  63 N15G23    30.04R
EMPORIA        MOCLDY    59  32  36 S13       29.91R
LAWRENCE       MOCLDY    61  34  36 W17G25    29.94R
MANHATTAN      PTCLDY    50  34  54 N8        29.99R
OLATHE IND     CLEAR     56  32  40 S15G24    29.92R
OLATHE EXE     PTCLDY    55  32  41 S13       29.91R
SALINA         PTCLDY    53  34  48 N20G29    29.99R
TOPEKA BILLARD MOCLDY    56  37  49 N17G26    29.97R
TOPEKA FORBES  MOCLDY    57  37  47 N16G24    29.95R
$$



USA.gov is the U.S. government's official web portal to all federal, state and local government web resources and services.